Time,TemperatureF,DewpointF,PressureIn,WindDirection,WindDirectionDegrees,WindSpeedMPH,WindSpeedGustMPH,Humidity,HourlyPrecipIn,Conditions,Clouds,dailyrainin,SoftwareType,DateUTC
2013-04-27 00:00:00,74.5,60.6,29.99,East,90,4.0,9.0,62,0.00,,---,0.00,VWS V14.01,2013-04-27 10:00:00,
2013-04-27 00:30:00,74.3,60.5,29.98,ESE,112,4.0,11.0,62,0.00,,---,0.00,VWS V14.01,2013-04-27 10:30:00,
2013-04-27 01:00:00,73.7,61.2,29.98,East,90,2.0,7.0,65,0.00,,---,0.00,VWS V14.01,2013-04-27 11:00:00,
2013-04-27 01:30:00,73.7,61.7,29.97,East,90,2.0,7.0,66,0.00,,---,0.00,VWS V14.01,2013-04-27 11:30:00,
2013-04-27 02:00:00,73.2,61.6,29.97,East,90,2.0,5.0,67,0.00,,---,0.00,VWS V14.01,2013-04-27 12:00:00,
2013-04-27 02:30:00,73.1,60.7,29.96,East,90,2.0,7.0,65,0.00,,---,0.00,VWS V14.01,2013-04-27 12:30:00,
2013-04-27 03:00:00,72.3,60.7,29.96,East,90,4.0,10.0,67,0.00,,---,0.00,VWS V14.01,2013-04-27 13:00:00,
2013-04-27 03:30:00,71.7,60.6,29.96,East,90,4.0,10.0,68,0.00,,---,0.00,VWS V14.01,2013-04-27 13:30:00,
2013-04-27 04:00:00,71.4,60.7,29.95,East,90,4.0,11.0,69,0.00,,---,0.00,VWS V14.01,2013-04-27 14:00:00,
2013-04-27 04:30:00,71.2,60.5,29.95,East,90,5.0,10.0,69,0.00,,---,0.00,VWS V14.01,2013-04-27 14:30:00,
2013-04-27 05:00:00,70.6,60.0,29.96,East,90,4.0,10.0,69,0.00,,---,0.00,VWS V14.01,2013-04-27 15:00:00,
2013-04-27 05:30:00,70.2,57.5,29.96,ESE,112,5.0,9.0,64,0.00,,---,0.00,VWS V14.01,2013-04-27 15:30:00,
2013-04-27 06:00:00,70.2,57.5,29.97,ESE,112,5.0,13.0,64,0.00,,---,0.00,VWS V14.01,2013-04-27 16:00:00,
2013-04-27 06:30:00,70.4,58.1,29.98,ESE,112,4.0,9.0,65,0.00,,---,0.00,VWS V14.01,2013-04-27 16:30:00,
2013-04-27 07:00:00,72.8,59.9,29.98,SE,135,1.0,7.0,64,0.00,,---,0.00,VWS V14.01,2013-04-27 17:00:00,
2013-04-27 07:30:00,75.5,63.4,30.00,SE,135,0.0,2.0,66,0.00,,---,0.00,VWS V14.01,2013-04-27 17:30:00,
2013-04-27 08:00:00,78.2,63.7,30.00,NNE,22,1.0,4.0,61,0.00,,---,0.00,VWS V14.01,2013-04-27 18:00:00,
2013-04-27 08:30:00,78.6,64.5,30.01,NNE,22,0.0,2.0,62,0.00,,---,0.00,VWS V14.01,2013-04-27 18:30:00,
2013-04-27 09:00:00,78.4,65.2,30.01,NNE,22,2.0,3.0,64,0.00,,---,0.00,VWS V14.01,2013-04-27 19:00:00,
2013-04-27 09:30:00,78.5,66.2,30.01,WNW,292,2.0,5.0,66,0.00,,---,0.00,VWS V14.01,2013-04-27 19:30:00,
2013-04-27 10:00:00,78.9,66.6,30.00,WNW,292,3.0,6.0,66,0.00,,---,0.00,VWS V14.01,2013-04-27 20:00:00,
2013-04-27 10:30:00,79.6,66.4,30.00,WNW,292,5.0,8.0,64,0.00,,---,0.00,VWS V14.01,2013-04-27 20:30:00,
2013-04-27 11:00:00,79.4,66.2,30.00,WNW,292,6.0,10.0,64,0.00,,---,0.00,VWS V14.01,2013-04-27 21:00:00,
2013-04-27 11:30:00,79.0,68.0,30.00,WNW,292,7.0,10.0,69,0.00,,---,0.00,VWS V14.01,2013-04-27 21:30:00,
2013-04-27 12:00:00,79.4,66.2,29.99,West,270,6.0,8.0,64,0.00,,---,0.00,VWS V14.01,2013-04-27 22:00:00,
2013-04-27 12:30:00,80.7,67.8,29.99,West,270,6.0,8.0,65,0.00,,---,0.00,VWS V14.01,2013-04-27 22:30:00,
2013-04-27 13:00:00,81.0,67.2,29.98,West,270,6.0,9.0,63,0.00,,---,0.00,VWS V14.01,2013-04-27 23:00:00,
2013-04-27 13:30:00,80.7,67.4,29.98,West,270,6.0,9.0,64,0.00,,---,0.00,VWS V14.01,2013-04-27 23:30:00,
2013-04-27 14:00:00,80.7,68.7,29.97,West,270,4.0,7.0,67,0.00,,---,0.00,VWS V14.01,2013-04-28 00:00:00,
2013-04-27 14:30:00,81.1,68.7,29.96,West,270,4.0,7.0,66,0.00,,---,0.00,VWS V14.01,2013-04-28 00:30:00,
2013-04-27 15:00:00,81.1,69.6,29.94,West,270,4.0,7.0,68,0.00,,---,0.00,VWS V14.01,2013-04-28 01:00:00,
2013-04-27 15:30:00,80.3,70.1,29.93,West,270,4.0,7.0,71,0.00,,---,0.00,VWS V14.01,2013-04-28 01:30:00,
2013-04-27 16:00:00,79.9,69.2,29.93,West,270,5.0,7.0,70,0.00,,---,0.00,VWS V14.01,2013-04-28 02:00:00,
2013-04-27 16:30:00,79.3,69.1,29.93,West,270,4.0,7.0,71,0.00,,---,0.00,VWS V14.01,2013-04-28 02:30:00,
2013-04-27 17:00:00,79.1,69.3,29.92,West,270,3.0,6.0,72,0.00,,---,0.00,VWS V14.01,2013-04-28 03:00:00,
2013-04-27 17:30:00,78.6,68.8,29.93,WSW,248,2.0,5.0,72,0.00,,---,0.00,VWS V14.01,2013-04-28 03:30:00,
2013-04-27 18:00:00,78.4,68.2,29.93,WSW,248,1.0,4.0,71,0.00,,---,0.00,VWS V14.01,2013-04-28 04:00:00,
2013-04-27 18:30:00,78.1,68.3,29.95,SSW,202,0.0,3.0,72,0.00,,---,0.00,VWS V14.01,2013-04-28 04:30:00,
2013-04-27 19:00:00,77.9,68.2,29.97,SSW,202,0.0,3.0,72,0.00,,---,0.00,VWS V14.01,2013-04-28 05:00:00,
2013-04-27 19:30:00,77.9,67.8,29.98,SSW,202,1.0,5.0,71,0.00,,---,0.00,VWS V14.01,2013-04-28 05:30:00,
2013-04-27 20:00:00,77.5,67.8,29.99,SSW,202,0.0,3.0,72,0.00,,---,0.00,VWS V14.01,2013-04-28 06:00:00,
2013-04-27 20:30:00,76.9,67.6,30.00,SSW,202,0.0,3.0,73,0.00,,---,0.00,VWS V14.01,2013-04-28 06:30:00,
2013-04-27 21:00:00,76.0,67.1,30.01,SSW,202,0.0,1.0,74,0.00,,---,0.00,VWS V14.01,2013-04-28 07:00:00,
2013-04-27 21:30:00,73.8,66.2,30.01,South,180,0.0,2.0,77,0.00,,---,0.00,VWS V14.01,2013-04-28 07:30:00,
2013-04-27 22:00:00,74.0,65.2,30.02,South,180,0.0,2.0,74,0.00,,---,0.00,VWS V14.01,2013-04-28 08:00:00,
2013-04-27 22:30:00,72.7,63.2,30.03,South,180,0.0,3.0,72,0.00,,---,0.00,VWS V14.01,2013-04-28 08:30:00,
2013-04-27 23:00:00,73.1,62.7,30.02,East,90,1.0,6.0,70,0.00,,---,0.00,VWS V14.01,2013-04-28 09:00:00,
2013-04-27 23:30:00,72.6,63.1,30.02,East,90,1.0,3.0,72,0.00,,---,0.00,VWS V14.01,2013-04-28 09:30:00,